Flag for Chile Weather past 2 weeks in Osorno, Chile

Now
41 °F

Light rain. Overcast.


Feels Like: 36 °F
Forecast: 33 / 47 °F
Wind: 7 mph from Northwest

Location: Puerto Montt Airport

Current Time: Jul 24, 2014 at 6:58:39 AM

Latest Report: Jul 24, 2014 at 6:00 AM


Visibility: 2 mi

Pressure: 30.39 "Hg

Humidity: 93%

Dew point: 39 °F

Location of OsornoLocation

Historic Weather in Osorno — Graph

°F

Osorno temperature yesterday

Maximum temperature yesterday: 48 °F (at 1:00 PM)
Minimum temperature yesterday: 34 °F (at 2:00 AM)
Average temperature yesterday: 41 °F

Past Weeks' High & Low Weather Summary

 TemperatureHumidityPressure
High55 °F (Jul 9, 3:00 PM)100% (Jul 9, 10:00 AM)30.51 "Hg (Jul 9, 10:00 AM)
Low30 °F (Jul 10, 8:00 AM)51% (Jul 13, 10:00 AM)29.68 "Hg (Jul 14, 5:00 AM)
Average46 °F88%30.05 "Hg
* Reported Jul 9 6:00 AM — Jul 24 6:00 AM, Osorno, Weather by CustomWeather, © 2014

Note: Actual official high and low records may vary slightly from our data, if they occured in-between our weather recording intervals... More about our weather records

Advertising

Osorno weather history for previous 24 hours

 ConditionsComfort  
Time TempWeatherWind HumidityBarometerVisibility
6:00 AM
Jul 24
41 °FLight rain. Overcast.7 mph93%30.39 "Hg2 mi
5:00 AM41 °FLight rain. Overcast.6 mph93%30.39 "Hg4 mi
4:00 AM39 °FLight rain. Overcast.2 mph100%30.42 "Hg3 mi
3:00 AM39 °FLight rain. Overcast.3 mph100%30.45 "Hg4 mi
2:00 AM39 °FPassing clouds.No wind93%30.45 "HgN/A
1:00 AM37 °FPassing clouds.5 mph93%30.48 "HgN/A
12:00 AM39 °FPassing clouds.5 mph93%30.48 "HgN/A
11:00 PM
Jul 23
41 °FScattered showers. Overcast.5 mph93%30.48 "Hg4 mi
10:00 PM41 °FLight rain. Passing clouds.3 mph93%30.51 "Hg3 mi
9:00 PM39 °FPassing clouds.3 mph93%30.48 "HgN/A
8:00 PM39 °FPassing clouds.No wind93%30.48 "HgN/A
7:00 PM41 °FPassing clouds.2 mph93%30.45 "HgN/A
6:00 PM45 °FPassing clouds.2 mph81%30.45 "HgN/A
5:00 PM46 °FPassing clouds.6 mph82%30.45 "HgN/A
4:00 PM45 °FSprinkles. Partly sunny.7 mph93%30.45 "HgN/A
3:00 PM48 °FPartly sunny.5 mph82%30.42 "HgN/A
2:00 PM46 °FSprinkles. Partly sunny.8 mph82%30.42 "HgN/A
1:00 PM48 °FScattered clouds.8 mph82%30.42 "HgN/A
12:00 PM45 °FPartly sunny.3 mph100%30.45 "HgN/A
11:00 AM43 °FPartly sunny.3 mph93%30.45 "HgN/A
10:00 AM37 °FFog.2 mph93%30.42 "Hg3 mi
9:00 AM34 °FFog.No wind100%30.39 "Hg2 mi
Weather by CustomWeather, © 2014

See weather overviewHow to use our weather pages